Time,TemperatureF,DewpointF,PressureIn,WindDirection,WindDirectionDegrees,WindSpeedMPH,WindSpeedGustMPH,Humidity,HourlyPrecipIn,Conditions,Clouds,dailyrainin,SoftwareType,DateUTC
2013-01-28 00:00:00,12.0,10.0,-100.00,West,275,9.0,16.0,94,-99.99,,,-99.99,,2013-01-28 07:00:00,
2013-01-28 00:32:00,12.0,10.0,-100.00,West,275,9.0,16.0,94,-99.99,,,-99.99,,2013-01-28 07:32:00,
2013-01-28 00:42:00,12.0,10.0,-100.00,West,275,9.0,16.0,94,-99.99,,,-99.99,,2013-01-28 07:42:00,
2013-01-28 00:52:00,12.0,10.0,-100.00,West,275,9.0,16.0,94,-99.99,,,-99.99,,2013-01-28 07:52:00,
2013-01-28 02:00:00,10.0,8.0,-100.00,West,275,7.0,16.0,93,-99.99,,,-99.99,,2013-01-28 09:00:00,
2013-01-28 02:32:00,10.0,8.0,-100.00,West,275,7.0,16.0,93,-99.99,,,-99.99,,2013-01-28 09:32:00,
2013-01-28 02:42:00,10.0,8.0,-100.00,West,275,7.0,16.0,93,-99.99,,,-99.99,,2013-01-28 09:42:00,
2013-01-28 02:52:00,10.0,8.0,-100.00,West,275,7.0,16.0,93,-99.99,,,-99.99,,2013-01-28 09:52:00,
2013-01-28 04:00:00,8.0,6.0,-100.00,West,271,6.0,15.0,93,-99.99,,,-99.99,,2013-01-28 11:00:00,
2013-01-28 04:32:00,8.0,6.0,-100.00,West,271,6.0,15.0,93,-99.99,,,-99.99,,2013-01-28 11:32:00,
2013-01-28 04:42:00,8.0,6.0,-100.00,West,271,6.0,15.0,93,-99.99,,,-99.99,,2013-01-28 11:42:00,
2013-01-28 04:52:00,8.0,6.0,-100.00,West,271,6.0,15.0,93,-99.99,,,-99.99,,2013-01-28 11:52:00,
2013-01-28 06:00:00,6.0,4.0,-100.00,West,276,8.0,18.0,93,-99.99,,,-99.99,,2013-01-28 13:00:00,
2013-01-28 06:33:00,6.0,4.0,-100.00,West,276,8.0,18.0,93,-99.99,,,-99.99,,2013-01-28 13:33:00,
2013-01-28 06:42:00,6.0,4.0,-100.00,West,276,8.0,18.0,93,-99.99,,,-99.99,,2013-01-28 13:42:00,
2013-01-28 06:53:00,6.0,4.0,-100.00,West,276,8.0,18.0,93,-99.99,,,-99.99,,2013-01-28 13:53:00,
2013-01-28 08:00:00,5.0,3.0,-100.00,WNW,286,4.0,11.0,93,-99.99,,,-99.99,,2013-01-28 15:00:00,
2013-01-28 08:33:00,5.0,3.0,-100.00,WNW,286,4.0,11.0,93,-99.99,,,-99.99,,2013-01-28 15:33:00,
2013-01-28 08:43:00,5.0,3.0,-100.00,WNW,286,4.0,11.0,93,-99.99,,,-99.99,,2013-01-28 15:43:00,
2013-01-28 08:53:00,5.0,3.0,-100.00,WNW,286,4.0,11.0,93,-99.99,,,-99.99,,2013-01-28 15:53:00,
2013-01-28 10:00:00,7.0,4.0,-100.00,NW,313,3.0,9.0,88,-99.99,,,-99.99,,2013-01-28 17:00:00,
2013-01-28 10:33:00,7.0,4.0,-100.00,NW,313,3.0,9.0,88,-99.99,,,-99.99,,2013-01-28 17:33:00,
2013-01-28 10:42:00,7.0,4.0,-100.00,NW,313,3.0,9.0,88,-99.99,,,-99.99,,2013-01-28 17:42:00,
2013-01-28 10:52:00,7.0,4.0,-100.00,NW,313,3.0,9.0,88,-99.99,,,-99.99,,2013-01-28 17:52:00,
2013-01-28 12:00:00,9.0,6.0,-100.00,NW,318,4.0,9.0,87,-99.99,,,-99.99,,2013-01-28 19:00:00,
2013-01-28 12:33:00,9.0,6.0,-100.00,NW,318,4.0,9.0,87,-99.99,,,-99.99,,2013-01-28 19:33:00,
2013-01-28 12:42:00,9.0,6.0,-100.00,NW,318,4.0,9.0,87,-99.99,,,-99.99,,2013-01-28 19:42:00,
2013-01-28 12:52:00,9.0,6.0,-100.00,NW,318,4.0,9.0,87,-99.99,,,-99.99,,2013-01-28 19:52:00,
2013-01-28 14:00:00,6.0,2.0,-100.00,NW,307,6.0,18.0,81,-99.99,,,-99.99,,2013-01-28 21:00:00,
2013-01-28 14:33:00,6.0,2.0,-100.00,NW,307,6.0,18.0,81,-99.99,,,-99.99,,2013-01-28 21:33:00,
2013-01-28 14:43:00,6.0,2.0,-100.00,NW,307,6.0,18.0,81,-99.99,,,-99.99,,2013-01-28 21:43:00,
2013-01-28 14:53:00,6.0,2.0,-100.00,NW,307,6.0,18.0,81,-99.99,,,-99.99,,2013-01-28 21:53:00,
2013-01-28 16:00:00,6.0,3.0,-100.00,NW,306,5.0,14.0,87,-99.99,,,-99.99,,2013-01-28 23:00:00,
2013-01-28 16:33:00,6.0,3.0,-100.00,NW,306,5.0,14.0,87,-99.99,,,-99.99,,2013-01-28 23:33:00,
2013-01-28 16:42:00,6.0,3.0,-100.00,NW,306,5.0,14.0,87,-99.99,,,-99.99,,2013-01-28 23:42:00,
2013-01-28 16:53:00,6.0,3.0,-100.00,NW,306,5.0,14.0,87,-99.99,,,-99.99,,2013-01-28 23:53:00,
2013-01-28 18:00:00,4.0,0.0,-100.00,NW,304,5.0,11.0,85,-99.99,,,-99.99,,2013-01-29 01:00:00,
2013-01-28 18:32:00,4.0,0.0,-100.00,NW,304,5.0,11.0,85,-99.99,,,-99.99,,2013-01-29 01:32:00,
2013-01-28 18:42:00,4.0,0.0,-100.00,NW,304,5.0,11.0,85,-99.99,,,-99.99,,2013-01-29 01:42:00,
2013-01-28 18:52:00,4.0,0.0,-100.00,NW,304,5.0,11.0,85,-99.99,,,-99.99,,2013-01-29 01:52:00,
2013-01-28 20:00:00,5.0,1.0,-100.00,NW,307,5.0,10.0,82,-99.99,,,-99.99,,2013-01-29 03:00:00,
2013-01-28 20:32:00,5.0,1.0,-100.00,NW,307,5.0,10.0,82,-99.99,,,-99.99,,2013-01-29 03:32:00,
2013-01-28 20:42:00,5.0,1.0,-100.00,NW,307,5.0,10.0,82,-99.99,,,-99.99,,2013-01-29 03:42:00,
2013-01-28 20:53:00,5.0,1.0,-100.00,NW,307,5.0,10.0,82,-99.99,,,-99.99,,2013-01-29 03:53:00,
2013-01-28 22:00:00,5.0,3.0,-100.00,WNW,290,6.0,14.0,91,-99.99,,,-99.99,,2013-01-29 05:00:00,
2013-01-28 22:32:00,5.0,3.0,-100.00,WNW,290,6.0,14.0,91,-99.99,,,-99.99,,2013-01-29 05:32:00,
2013-01-28 22:43:00,5.0,3.0,-100.00,WNW,290,6.0,14.0,91,-99.99,,,-99.99,,2013-01-29 05:43:00,
2013-01-28 22:52:00,5.0,3.0,-100.00,WNW,290,6.0,14.0,91,-99.99,,,-99.99,,2013-01-29 05:52:00,